Stations météo

réclame
Mon MeteoGroup
D15-FA-1, Pays-Bas (6201): Température de l'air & dewpoint: 22.05.2018 07:00:00 - 28.05.2018 07:00:00 (CEST)D15-FA-1, Pays-Bas (6201): Vitesse du vent & gusts: 22.05.2018 07:00:00 - 28.05.2018 07:00:00 (CEST)D15-FA-1, Pays-Bas (6201): Direction du vent: 22.05.2018 07:00:00 - 28.05.2018 07:00:00 (CEST)D15-FA-1, Pays-Bas (6201): reduced air pressure: 22.05.2018 07:00:00 - 28.05.2018 07:00:00 (CEST)D15-FA-1, Pays-Bas (6201): visibility: 22.05.2018 07:00:00 - 28.05.2018 07:00:00 (CEST)
Date & Time tt [°C] td [°C] ff [km/h] ff [knt] fx [km/h] fx [knt] dd ppp [hPa] vv [km]
28.05.2018 07:00:00 13,2 12,7 29 16 29 16 ENE 1018,6 4,8
28.05.2018 06:00:00 13,1 12,6 29 16 32 18 E 1018,4 6
28.05.2018 05:00:00 13,2 12,6 35 19 32 18 ENE 1018,6 7
28.05.2018 04:00:00 13,3 12,6 42 23 40 21 - 1018,7 8
28.05.2018 03:00:00 13,3 12,5 31 17 32 18 - 1018,7 9
28.05.2018 02:00:00 13,4 12,5 34 18 32 18 ENE 1019,1 9
28.05.2018 01:00:00 13,6 12,6 31 17 36 19 ENE 1019,5 9
28.05.2018 00:00:00 13,6 12,6 31 17 36 19 ENE 1019,5 10
27.05.2018 23:00:00 13,5 12,4 34 18 36 19 ENE 1019,4 10
27.05.2018 22:00:00 13,4 12,3 34 18 32 18 ENE 1019,4 10
27.05.2018 21:00:00 13,6 12,5 34 18 32 18 ENE 1019,6 8
27.05.2018 20:00:00 13,9 12,8 37 20 32 18 E 1019,4 9
27.05.2018 19:00:00 13,7 12,8 35 19 32 18 ENE 1019,8 7
27.05.2018 18:00:00 13,3 12,5 34 18 32 18 E 1020,3 7
27.05.2018 17:00:00 13,3 12,5 37 20 36 19 E 1020,9 6
27.05.2018 16:00:00 13,3 12,6 31 17 32 18 E 1020,9 5
27.05.2018 15:00:00 13,2 12,3 28 15 29 16 E 1021,4 8
27.05.2018 14:00:00 13,6 12,3 28 15 40 21 E 1021,9 10
27.05.2018 13:00:00 13,9 12,3 41 22 36 19 E 1022,2 10
27.05.2018 12:00:00 14,0 12,2 39 21 32 18 E 1022,1 10
27.05.2018 11:00:00 14,2 12,0 35 19 36 19 E 1022,3 10
27.05.2018 10:00:00 14,8 12,0 37 20 47 25 E 1022,5 10
27.05.2018 09:00:00 14,1 11,7 37 20 36 19 E 1022,7 10
27.05.2018 08:00:00 13,9 11,5 28 15 32 18 E 1022,7 10
27.05.2018 07:00:00 13,9 11,1 35 19 36 19 E 1022,6 10
27.05.2018 06:00:00 13,6 11,1 39 21 36 19 E 1022,5 10
27.05.2018 05:00:00 13,6 11,0 32 18 40 21 E 1022,4 24
27.05.2018 04:00:00 13,9 10,9 44 24 40 21 E 1022,7 10
27.05.2018 03:00:00 13,9 11,1 41 22 40 21 E 1023,1 10
27.05.2018 02:00:00 14,3 11,1 44 24 40 21 E 1023,5 10
27.05.2018 01:00:00 14,1 11,4 44 24 43 23 E 1023,7 10
27.05.2018 00:00:00 13,9 11,5 41 22 40 21 ENE 1023,6 10
26.05.2018 23:00:00 13,5 11,6 32 18 36 19 ENE 1023,7 18
26.05.2018 22:00:00 13,2 11,3 35 19 32 18 ENE 1023,7 10
26.05.2018 21:00:00 12,9 11,3 35 19 36 19 NNE 1023,6 10
26.05.2018 20:00:00 12,8 11,5 34 18 32 18 NNE 1023,6 10
26.05.2018 19:00:00 12,8 11,4 29 16 29 16 ENE 1023,7 10
26.05.2018 18:00:00 12,7 11,4 29 16 29 16 ENE 1023,9 10
26.05.2018 17:00:00 12,8 11,2 26 14 25 14 ENE 1024,2 10
26.05.2018 16:00:00 12,8 11,2 29 16 32 18 ENE 1024,5 10
26.05.2018 15:00:00 13,1 10,9 34 18 36 19 - 1024,5 10
26.05.2018 14:00:00 13,1 10,5 31 17 32 18 - 1024,6 10
26.05.2018 13:00:00 13,6 9,1 34 18 32 18 NE 1024,6 10
26.05.2018 12:00:00 14,6 8,1 34 18 32 18 ENE 1024,7 10
26.05.2018 11:00:00 14,2 8,7 37 20 36 19 E 1024,7 10
26.05.2018 10:00:00 13,6 8,9 37 20 36 19 ENE 1024,4 10
26.05.2018 09:00:00 13,3 9,4 39 21 40 21 - 1024,1 10
26.05.2018 08:00:00 13,5 9,0 39 21 40 21 E 1023,7 10
26.05.2018 07:00:00 13,7 8,7 42 23 40 21 E 1023,2 10
26.05.2018 06:00:00 13,6 8,8 41 22 40 21 E 1022,9 10
26.05.2018 05:00:00 13,3 8,8 37 20 43 23 ENE 1022,7 10
26.05.2018 04:00:00 14,0 8,2 54 29 54 29 E 1022,4 10
26.05.2018 03:00:00 13,5 8,4 39 21 40 21 E 1022,5 10
26.05.2018 02:00:00 14,1 8,2 39 21 58 31 E 1022,4 10
26.05.2018 01:00:00 14,0 9,0 41 22 43 23 E 1022,2 10
26.05.2018 00:00:00 13,3 10,4 26 14 32 18 E 1022,4 10
25.05.2018 23:00:00 14,9 10,0 35 19 36 19 E 1022,0 10
25.05.2018 22:00:00 14,9 10,0 41 22 43 23 E 1021,6 10
25.05.2018 21:00:00 13,6 10,6 52 28 50 27 - 1021,0 10
25.05.2018 20:00:00 14,1 11,7 41 22 43 23 - 1020,9 10
25.05.2018 19:00:00 14,5 12,5 28 15 36 19 ENE 1021,2 10
25.05.2018 18:00:00 13,5 11,5 37 20 36 19 E 1021,3 10
25.05.2018 17:00:00 12,7 11,3 41 22 40 21 E 1021,3 10
25.05.2018 16:00:00 12,7 11,1 35 19 36 19 E 1021,1 10
25.05.2018 15:00:00 12,4 11,0 29 16 29 16 E 1021,1 10
25.05.2018 14:00:00 12,2 10,9 29 16 29 16 E 1021,3 10
25.05.2018 13:00:00 12,3 10,9 31 17 32 18 E 1020,9 10
25.05.2018 12:00:00 12,3 11,0 35 19 36 19 E 1020,7 10
25.05.2018 11:00:00 12,3 11,0 34 18 36 19 E 1020,8 10
25.05.2018 10:00:00 12,3 10,9 35 19 32 18 E 1020,4 10
25.05.2018 09:00:00 12,3 11,3 29 16 40 21 ESE 1020,2 6
25.05.2018 08:00:00 12,3 10,7 29 16 32 18 E 1020,1 15
25.05.2018 07:00:00 12,4 10,6 34 18 32 18 E 1019,8 10
25.05.2018 06:00:00 12,3 10,4 28 15 32 18 E 1019,7 10
25.05.2018 05:00:00 12,5 10,3 31 17 29 16 E 1019,6 10
25.05.2018 04:00:00 12,9 10,5 29 16 32 18 E 1019,8 10
25.05.2018 03:00:00 12,9 10,4 35 19 32 18 E 1020,2 10
25.05.2018 02:00:00 13,2 10,4 41 22 40 21 E 1020,4 10
25.05.2018 01:00:00 13,4 10,3 39 21 36 19 E 1020,8 10
25.05.2018 00:00:00 13,3 10,1 41 22 40 21 ENE 1020,7 10
24.05.2018 23:00:00 13,7 10,0 32 18 36 19 E 1021,0 32
24.05.2018 22:00:00 13,4 9,9 39 21 40 21 E 1021,1 10
24.05.2018 21:00:00 13,3 10,1 39 21 40 21 E 1021,0 10
24.05.2018 20:00:00 13,1 10,6 37 20 36 19 ENE 1021,0 10
24.05.2018 19:00:00 13,0 10,3 35 19 32 18 ENE 1021,0 10
24.05.2018 18:00:00 12,9 9,9 35 19 40 21 ENE 1021,5 10
24.05.2018 17:00:00 12,8 9,8 35 19 36 19 ENE 1022,2 10
24.05.2018 16:00:00 12,7 9,6 29 16 36 19 ENE 1022,8 20
24.05.2018 15:00:00 12,5 10,0 35 19 36 19 ENE 1023,0 10
24.05.2018 14:00:00 12,4 10,2 35 19 36 19 ENE 1023,6 10
24.05.2018 13:00:00 12,2 10,2 34 18 36 19 - 1023,9 10
24.05.2018 12:00:00 12,1 10,2 31 17 29 16 ENE 1024,2 10
24.05.2018 11:00:00 11,8 10,2 29 16 29 16 ENE 1024,7 10
24.05.2018 10:00:00 11,7 10,1 29 16 29 16 ENE 1025,2 10
24.05.2018 09:00:00 11,7 9,9 29 16 32 18 ENE 1025,3 10
24.05.2018 08:00:00 11,2 9,7 31 17 36 19 - 1025,2 10
24.05.2018 07:00:00 10,5 9,5 35 19 36 19 - 1025,1 10
24.05.2018 06:00:00 9,4 9,3 37 20 40 21 - 1025,2 3,0
24.05.2018 05:00:00 9,4 9,3 37 20 40 21 NNE 1025,6 1,2
24.05.2018 04:00:00 9,1 9,1 41 22 40 21 - 1026,1 1,2
24.05.2018 03:00:00 8,9 8,9 37 20 40 21 - 1026,2 1,0
24.05.2018 02:00:00 8,8 8,8 37 20 40 21 - 1026,4 0,7
24.05.2018 01:00:00 8,7 8,7 39 21 43 23 - 1026,6 0,4
24.05.2018 00:00:00 8,9 8,9 42 23 43 23 NNE 1026,8 0,6
23.05.2018 23:00:00 8,9 8,8 46 25 43 23 - 1026,7 0,6
23.05.2018 22:00:00 9,1 8,9 41 22 43 23 - 1026,4 0,6
23.05.2018 21:00:00 9,3 8,9 46 25 47 25 - 1026,2 1,7
23.05.2018 20:00:00 9,5 8,9 50 27 47 25 - 1025,8 5
23.05.2018 19:00:00 9,9 9,1 46 25 47 25 NNE 1025,8 8
23.05.2018 18:00:00 10,1 9,1 48 26 47 25 NNE 1025,8 8
23.05.2018 17:00:00 10,1 9,0 46 25 47 25 NNE 1025,9 9
23.05.2018 16:00:00 10,0 9,0 42 23 43 23 NNE 1026,2 7
23.05.2018 15:00:00 10,0 9,0 46 25 43 23 NNE 1026,1 8
23.05.2018 14:00:00 9,6 8,7 46 25 47 25 NNE 1026,0 7
23.05.2018 13:00:00 9,7 8,5 44 24 47 25 - 1026,1 8
23.05.2018 12:00:00 9,6 8,5 46 25 47 25 NNE 1025,8 6
23.05.2018 11:00:00 9,6 8,4 42 23 47 25 NNE 1025,2 6
23.05.2018 10:00:00 9,4 8,4 44 24 47 25 NNE 1024,9 5
23.05.2018 09:00:00 9,8 8,8 42 23 47 25 NNE 1024,4 7
23.05.2018 08:00:00 10,1 8,9 36 19 47 25 NNE 1023,9 8
23.05.2018 07:00:00 9,9 8,9 42 23 43 23 NNE 1023,0 8
23.05.2018 06:00:00 9,9 9,2 44 24 43 23 NNE 1022,6 8
23.05.2018 05:00:00 9,8 9,6 44 24 43 23 NNE 1022,0 0,4
23.05.2018 04:00:00 11,1 10,1 41 22 40 21 NNE 1022,0 10
23.05.2018 03:00:00 11,1 10,1 32 18 36 19 NNE 1022,0 13
23.05.2018 02:00:00 11,3 10,0 35 19 32 18 NNE 1021,5 10
23.05.2018 01:00:00 11,2 10,1 37 20 36 19 NNE 1021,1 10
23.05.2018 00:00:00 11,2 10,0 35 19 36 19 NNE 1020,9 10
22.05.2018 23:00:00 11,3 10,2 41 22 40 21 NNE 1020,5 10
22.05.2018 22:00:00 11,2 10,2 39 21 40 21 NNE 1020,0 10
22.05.2018 21:00:00 11,4 10,3 35 19 36 19 N 1019,5 10
22.05.2018 20:00:00 12,0 10,1 34 18 36 19 NNE 1019,0 10
22.05.2018 19:00:00 11,7 10,2 34 18 32 18 - 1018,8 10
22.05.2018 18:00:00 11,3 10,2 37 20 36 19 NNE 1018,5 10
22.05.2018 17:00:00 11,2 10,1 35 19 36 19 NNE 1018,4 10
22.05.2018 16:00:00 11,2 10,0 37 20 40 21 NNE 1018,4 10
22.05.2018 15:00:00 11,1 10,1 34 18 32 18 NNE 1017,9 10
22.05.2018 14:00:00 11,3 10,2 35 19 32 18 NNE 1017,6 10
22.05.2018 13:00:00 11,2 10,2 31 17 - - NNE 1017,5 10
22.05.2018 12:00:00 11,3 10,0 31 17 32 18 NNE 1017,1 10
22.05.2018 11:00:00 11,3 9,9 35 19 40 21 - 1016,7 10
22.05.2018 10:00:00 11,3 9,7 39 21 40 21 - 1016,5 10
22.05.2018 09:00:00 11,5 9,7 42 23 40 21 - 1016,4 10
22.05.2018 08:00:00 11,5 9,6 42 23 43 23 NNE 1016,2 10
22.05.2018 07:00:00 11,6 9,6 44 24 43 23 - 1015,8 10

tt = Température de l'air
td = dewpoint
ff = Vitesse du vent
fx = gusts
dd = Direction du vent
ppp = reduced air pressure
vv = visibility

stations d'obs. à proximité